Regional Weather Roundup
Issued by NWS Charleston, SC

Current Version | Previous Version | Text Only | Print | Product List | Glossary Off
Versions: 1 2 3 4 5 6 7 8 9 10 11 12 13 14 15 16 17 18 19 20 21 22 23 24 25 26 27 28 29 30 31 32 33 34 35 36 37 38 39 40 41 42 43 44 45 46 47 48 49 50
000 ASUS42 KCHS 251925 RWRCHS REGIONAL WEATHER ROUNDUP NATIONAL WEATHER SERVICE CHARLESTON SC 200 PM EST SUN JAN 25 2015 NOTE: "FAIR" INDICATES FEW OR NO CLOUDS BELOW 12,000 FEET WITH NO SIGNIFICANT WEATHER AND/OR OBSTRUCTIONS TO VISIBILITY. NOT ALL STATIONS ARE QUALITY CONTROLLED BY THE NATIONAL WEATHER SERVICE. USE DATA WITH CAUTION...ESPECIALLY DEWPOINT OBSERVATIONS. SCZ027-030-031-034>040-042>050-252000- ...SOUTHEAST SOUTH CAROLINA... CITY SKY/WX TMP DP RH WIND PRES REMARKS N CHARLESTON MOSUNNY 58 32 37 S8 29.92F WATERFRONT PRK N/A 54 N/A N/A SE12 N/A MOUNT PLEASANT FAIR N/A N/A N/A SE9 29.92F PINOPOLIS NOT AVBL MONCKS CORNER FAIR 59 34 38 SW7 29.90F SUMMERVILLE FAIR 59 36 41 S7 29.90F BEAUFORT MCAS MOSUNNY 57 40 52 SE12 29.91F BEAUFORT ARPT FAIR 55 37 50 S5 29.91F HILTON HEAD IS SUNNY 54 39 58 S7 29.94F WALTERBORO CLEAR 61 28 29 S8 29.90F ALLENDALE FAIR 61 32 33 SW7 29.87F ...SOUTHERN MIDLANDS AND PEE DEE... CITY SKY/WX TMP DP RH WIND PRES REMARKS GEORGETOWN NOT AVBL KINGSTREE NOT AVBL ORANGEBURG SUNNY 58 31 35 SW7 29.88F BARNWELL FAIR 61 32 33 SW8 29.87F AIKEN FAIR 59 32 36 SW9 29.88F MANNING NOT AVBL COLUMBIA SUNNY 60 30 32 S10 29.86F SUMTER SUNNY 58 32 37 S8 29.86F FLORENCE SUNNY 57 32 38 S7 29.88F MYRTLE BEACH SUNNY 54 28 37 SE9 29.96F N MYRTLE BEACH SUNNY 51 30 44 SE7 29.93F $$ GAZ063-065-086>088-099>101-113>116-118-119-134>141-150-252000- ...SOUTHEAST GEORGIA... CITY SKY/WX TMP DP RH WIND PRES REMARKS SAVANNAH ARPT MOSUNNY 60 29 30 S9 29.91F HUNTER AAF SUNNY 60 35 38 SW6 29.90F FORT STEWART SUNNY 60 32 33 S9 29.90F STATESBORO SUNNY 61 35 37 SW10 29.89F SYLVANIA CLEAR 60 35 39 SW9 29.89F CLAXTON FAIR 59 36 41 SW5 29.90F ...CSRA...CENTRAL AND FAR SOUTHEAST GEORGIA... CITY SKY/WX TMP DP RH WIND PRES REMARKS THOMSON SUNNY 60 34 37 S5 29.88F AUGUSTA-BUSH SUNNY 59 28 30 SW7 29.87F AUGUSTA-DANIEL SUNNY 59 29 31 S7 29.87F SWAINSBORO FAIR 61 10 13 SW10G16 29.88F VIDALIA SUNNY 61 34 36 SW7 29.91F EASTMAN FAIR 61 31 32 W13G20 29.92F HAZLEHURST FAIR 61 33 34 SW9 29.90F ALMA SUNNY 59 31 34 SW14 29.92F WAYCROSS SUNNY 64 35 34 SW8 29.93F JESUP FAIR 63 34 34 SW12 29.93F BAXLEY FAIR 61 32 33 SW12 29.91F BRUNSWICK SUNNY 63 32 31 SW10G17 29.94F SAINT SIMONS SUNNY 55 39 54 SE13 29.96F $$ SCZ027-028-034-036>038-045-046-048>050-GAZ119-141-252000- ...LAKE AND SUPPLEMENTAL COASTAL OBSERVATIONS... STATION/POSITION TIME TEMP WIND PRES WAVE SWELL AIR SEA DIR/SP/G HT/PER HT/PER/DIR (UTC) (F) (DEG/KT/KT) (MB) (FT/S) (FT/S/D) UPR LAKE MARION NOT AVBL WINYAH BAY 1900 50 120/ 5 1013.0S LAKE MURRAY 1800 56 CALM / 3 1011.5F ACE BASIN NERRS 1900 55 170/ 2 1013.0F FORT PULASKI 1900 53 53 160/ 5/ 9 1013.9F SAPELO ISLAND 1900 58 160/ 9 1014.0S $$ ANZ835-935-AMZ111-154-330-350-352-354-370-450-454-472-252000- ...C-MAN AND BUOY OBSERVATIONS... STATION/POSITION TIME TEMP WIND PRES WAVE SWELL AIR SEA DIR/SP/G HT/PER HT/PER/DIR (UTC) (F) (DEG/KT/KT) (MB) (FT/S) (FT/S/D) BUOY 41004 1900 54 70 220/ 4/ 10 1014.0F 3/ 6 2/ 6 BUOY 41008 1900 50 56 180/ 10/ 12 1014.2F 1/11 FOLLY BEACH CMAN 1900 50 170/ 8/ 8 1014.0F CAPERS NEARSHORE 1800 52 220/ 4/ 6 N/A FRIPP NEARSHORE 1800 52 210/ 6/ 8 N/A STATION/POSITION TIME TEMP WIND PRES WAVE SWELL AIR SEA DIR/SP/G HT/PER HT/PER/DIR (UTC) (F) (DEG/KT/KT) (MB) (FT/S) (FT/S/D) 5E ST. MARYS GA 1900 59 N/A 1/11 FRYING PAN BUOY 1900 52 67 360/ 2/ 4 1014.3F 4/ 7 3/200/ 7 BUOY 41025 1900 48 69 20/ 2/ 6 1013.6F 4/10 5/140/10 CAPE LOOKOUT NC 1900 48 210/ 5/ 8 1013.6F BUOY 41002 1833 65 72 270/ 10/ 14 1014.1F 8/ 8 7/250/ 8 BUOY 41010 1900 66 76 270/ 6/ 10 1015.3F 5/ 7 ST AUGUSTINE FL 1900 55 80/ 1/ 4 1016.0F $$

USA.gov is the U.S. government's official web portal to all federal, state and local government web resources and services.